カタログに戻る

FENGYUN 1C DEB

運用中LEO
NORAD 31657·DEBRIS·🇨🇳 China

打ち上げ May 10, 1999 から Taiyuan Satellite Launch Center

Loading…

次のパス (今後24時間)

TLE

経年Source: Space-Track

元期: Sep 10, 2026, 05:39 UTC

1 31657U 99025CBP 26253.23586788  .00001003  00000-0  67561-3 0  9994
2 31657 102.2119 251.5996 0146152 113.9763 247.6769 13.99138889666598

AllMySatでFENGYUN 1C DEBをリアルタイム追跡

Download on the App Store